STARLINK-11409, 63061

Orbit data source: Space-Track

STARLINK-11409, 63061 is a payload satellite owned by SpaceX/Seattle (US) in LEO that was launched on Fri, 21 Feb 2025 UTC via an FALCON 9 launch vehicle from the Air Force Eastern Test Range (AFETR). Payload-class satellites include a variety of spacecraft equipped with specific instruments for various scientific and technological missions. These include communications satellites like Starlink; space stations such as the ISS; scientific satellites like the Hubble; Earth observation satellites from companies like Planet Labs, Umbra, and HawkEye 360; GPS; miniature CubeSats for education and research; and military/defense satellites.

Loading next visibility...
Identifier
63061, 2025-035K
Orbit
LEO
Country
Flag of USUS
Related business
Manufacturer
SpaceX/Seattle
Mission
Operational Commercial Communications
Bus & Motor
STARLINK V2MD, Unknown motor
Mass
960 kg wet, ~910 kg dry
Launch date (UTC)
2025-02-21 (1 year ago)
Launch vehicle
FALCON 9
Launch site
Air Force Eastern Test Range (AFETR)
Object type
Payload
Rocket body
Debris
Shape & HBR
Box + 2 Pan, 18.1 m
Radar Cross Section
36.964 m², Large (>1 m²)

Expand to show TLE details & history
Last TLE update: 15 hours ago

TLE from 15 hours ago
0 STARLINK-11409
1 63061U 25035K   26171.21565572  .00207615  00000-0  15742-2 0  9993
2 63061  43.0017 117.5140 0004444 251.3828 108.6558 15.70941784 77347
Epoch: 2026-06-20T05:10Z
TLE epoch observation values (Epoch: 2026-06-20T05:10:32.654Z)
Latitude
0.00004°
Longitude
131.44452°
Altitude
356.934 km
Speed
7.696 km/s
True Right ascension
07h 50m 03s
True Declination
0° 00' 00"
Sunlit
Object was in daylight at epoch
Visualization orbit readout
Latitude
Unknown
Longitude
Unknown
Altitude
Unknown
Speed
Unknown
Apparent Right ascension
Unknown
Apparent Declination
Unknown
Sunlit
N/A
Visualization observer readout
Local Sidereal Time
07:18:29
Azimuth
Unknown
Elevation
Unknown
Doppler factor
Unknown
Orbital elements
Apogee altitude
361.179 km
Perigee altitude
355.192 km
Semi-major axis
6,736.323 km
Eccentricity
0.00044
Inclination
43.0017°
RAAN
117.514°
Arg. of periapsis
251.3828°
True anomaly
108.70404°
Mean anomaly
108.6558°
Eccentric anomaly
108.67992°
Mean motion
3.92563 °/min
Orbital period
91.71 mins
BSTAR
0.0015742
Loading maneuver chart data...
Computing Atmospheric mass density...
Loading historical data...
Loading historical data...
Loading historical data...
Loading historical data...
Loading historical data...
Loading historical data...
Loading historical data...

Documentation

Showing up to 5 results
|